Regional Weather Roundup
Issued by NWS

Home | Current Version | Previous Version | Graphics & Text | Print | Product List | Glossary Off
Versions: 1 2 3 4 5 6 7 8 9 10 11 12 13 14 15 16 17 18 19 20 21 22 23 24 25 26 27 28 29 30 31 32 33 34 35 36 37 38 39 40 41 42 43 44 45 46 47 48 49 50

000
ASUS43 KMPX 130810
RWRMN
WEATHER ROUNDUP FOR MINNESOTA
NATIONAL WEATHER SERVICE TWIN CITIES/CHANHASSEN MN
200 AM CST SAT FEB 13 2016


NOTE: "FAIR" INDICATES FEW OR NO CLOUDS BELOW 12,000 FEET WITH NO
SIGNIFICANT WEATHER AND/OR OBSTRUCTIONS TO VISIBILITY. N/A MEANS
CURRENT SKY AND/OR WEATHER CONDITIONS ARE NOT AVAILABLE.

MNZ060>063-068>070-130900-
   Twin Cities Metro

CITY           SKY/WX    TMP DP  RH WIND       PRES   REMARKS
TWIN CITIES    CLOUDY    -3 -12  65 NW9       30.64R WCI -19
ST PAUL        CLOUDY    -2 -12  62 NW12      30.66R WCI -20
CRYSTAL        CLOUDY    -3 -13  62 NW8       30.63S WCI -18
BLAINE         CLOUDY    -2  -9  71 NW7       30.62R WCI -16
LAKEVILLE      CLOUDY    -4 -11  71 NW8       30.61S WCI -19
EDEN PRAIRIE   CLOUDY    -3 -13  62 NW5       30.63R WCI -13
SOUTH ST PAUL  CLOUDY    -1 -12  57 NW7       30.64R WCI -14
LAKE ELMO      FAIR       0 -11  60 NW6       30.63R WCI -12
$$
MNZ001>005-007-008-013>017-022>024-027-028-130900-
   Northwest Minnesota

CITY           SKY/WX    TMP DP  RH WIND       PRES   REMARKS
BEMIDJI        CLOUDY   -18 -23  79 W5        30.58R WCI -31
HALLOCK        CLOUDY   -15 -20  76 S3        30.64S
ROSEAU         CLOUDY   -20 -26  76 CALM      30.61R
WARROAD        CLOUDY   -20 -26  76 W3        30.59S
THIEF RVR FALL CLOUDY   -15 N/A N/A CALM      30.62F
CROOKSTON      CLOUDY    -9 -15  77 CALM      30.66F
FOSSTON          N/A    -26 -31  75 CALM      30.60F
DETROIT LAKES  CLOUDY   -13 -15  92 CALM      30.60S
MOORHEAD       CLOUDY    -8 -13  77 CALM      30.65F
PARK RAPIDS    CLOUDY   -18 -24  74 CALM      30.57S
MAHNOMEN       FAIR     -17 -22  79 CALM      30.60F
$$
MNZ006-009>011-018-025>026-130900-
   North Central Minnesota

CITY           SKY/WX    TMP DP  RH WIND       PRES   REMARKS
BAUDETTE       CLOUDY   -17 -23  73 NW5       30.56F WCI -30
FLAG ISLAND    CLOUDY   -17 -24  70 NW3       30.57F
INTL FALLS     CLOUDY   -18 -23  77 NW5       30.55S WCI -31
WASKISH        CLOUDY   -17 -22  76 W6        30.59R WCI -31
LONGVILLE      CLOUDY   -15 -18  84 CALM      30.58S
GRAND RAPIDS   CLOUDY   -13 -20  70 NW8       30.54S WCI -30
CRANE LAKE     CLOUDY   -24 -29  76 CALM      30.57R
ORR            CLOUDY   -18 -26  69 CALM      30.51R
COOK           CLOUDY   -20 -26  76 W3        30.54R
WALKER         FAIR     -17 -21  78 CALM      30.58S
$$
MNZ012-019>021-037-130900-
   Northeast Minnesota

CITY           SKY/WX    TMP DP  RH WIND       PRES   REMARKS
DULUTH         CLOUDY   -12 -21  64 NW9       30.53R WCI -30
ELY            CLOUDY   -17 -20  83 W7        30.49R WCI -33
HIBBING        CLOUDY   -16 -22  74 NW7       30.53R WCI -32
EVELETH        CLOUDY    -9 -18  64 W7        30.54R WCI -24
DULUTH HARBOR  CLOUDY    -4 -17  54 W7        30.64R WCI -18
TWO HARBORS    CLOUDY    -9 -18  64 W7        30.53R WCI -24
SILVER BAY     CLEAR    -11 -18  70 CALM      30.52R
GRAND MARAIS     N/A     -7 -17  62 CALM      30.55R
G MARAIS ARPRT CLEAR    -17 -24  70 NW7       30.36R WCI -33
$$
MNZ029>031-032-039>041-046>048-054>057-064-130900-
   West Central Minnesota

CITY           SKY/WX    TMP DP  RH WIND       PRES   REMARKS
FERGUS FALLS   CLOUDY    -9 -15  77 CALM      30.67S
WHEATON        CLOUDY    -8 -11  84 CALM      30.66F
MORRIS         CLOUDY    -8 -13  77 NW3       30.63F
ALEXANDRIA     CLOUDY    -9 -15  75 NW5       30.59S WCI -20
ELBOW LAKE     FAIR      -7 -12  79 N3        30.63S
WADENA         CLOUDY   -15 -18  84 CALM      30.59S
GLENWOOD       CLOUDY    -9 -15  77 NW5       30.60S WCI -21
APPLETON       CLOUDY    -6 -11  77 N3        30.66S
BENSON         CLOUDY    -9 -15  77 CALM      30.64S
ORTONVILLE     CLOUDY    -8 -15  71 CALM      30.64S
MADISON        CLOUDY    -6 -11  77 NW5       30.65F WCI -17
WILLMAR        FAIR      -4  -9  77 NW7       30.63S WCI -18
$$
MNZ033>034-036-042>043-049>051-058-059-130900-
   Central Minnesota

CITY           SKY/WX    TMP DP  RH WIND       PRES   REMARKS
ST CLOUD       CLOUDY    -9 -16  71 NW6       30.63R WCI -22
SAUK CENTRE    FAIR     -11 -16  77 N3        30.61S
PAYNESVILLE    PTCLDY    -8 -14  74 N3        30.63S
AITKIN         CLOUDY   -11 -20  64 CALM      30.58S
PINE RIVER     CLOUDY   -15 -20  76 CALM      30.61S
BRAINERD       CLOUDY   -12 -19  71 NW3       30.60S
STAPLES        CLOUDY   -17 -20  83 W5        30.60S WCI -29
LONG PRAIRIE   FAIR     -11 -17  77 NW3       30.60S
LITTLE FALLS   CLOUDY   -13 -17  84 CALM      30.64R
LITCHFIELD     CLOUDY    -6 -11  77 N10       30.62S WCI -23
BUFFALO        CLOUDY    -7 -15  68 NW5       30.64F WCI -18
MAPLE LAKE     CLOUDY    -6 -13  72 NW6       30.64S WCI -18
$$
MNZ037-044-045-052-053-130900-
   East Central Minnesota

CITY           SKY/WX    TMP DP  RH WIND       PRES   REMARKS
PRINCETON      CLOUDY    -8 -15  71 W5        30.61S WCI -19
MORA           CLOUDY    -6 -15  65 NW7       30.62S WCI -20
CAMBRIDGE      CLOUDY    -6 -15  65 CALM      30.60S
RUSH CITY      CLOUDY    -5 -15  63 NW3       30.62R
MOOSE LAKE     CLOUDY    -8 -18  59 NW5       30.57S WCI -19
HINCKLEY       FAIR      -6 -15  65 NW7       30.60S WCI -20
CLOQUET        CLOUDY   -11 -20  64 NW7       30.55S WCI -26
MCGREGOR       CLOUDY    -9 -17  70 W3        30.58S
$$
MNZ071>073-080-081-089-090-097-098-130900-
   Southwest Minnesota

CITY           SKY/WX    TMP DP  RH WIND       PRES   REMARKS
MONTEVIDEO     CLOUDY    -8 -11  84 N5        30.66F WCI -19
GRANITE FALLS  CLOUDY    -3  -8  80 NW6       30.66F WCI -15
CANBY          PTCLDY    -3  -8  78 NW3       30.65S
MARSHALL       CLOUDY    -6 -11  79 NW6       30.64S WCI -19
REDWOOD FALLS  CLOUDY    -4  -9  79 NW7       30.64R WCI -18
OLIVIA         CLOUDY     0  -8  71 NW9       30.63S WCI -16
PIPESTONE      CLOUDY    -4 -15  59 CALM      30.57F
WINDOM         CLOUDY    -8 -11  84 NW6       30.60R WCI -21
WORTHINGTON    CLOUDY    -8 -13  77 NW6       30.59S WCI -21
JACKSON        CLOUDY    -6 -11  77 NW9       30.59S WCI -22
TRACY          CLOUDY    -5 -10  80 NW6       30.62R WCI -18
SLAYTON        PTCLDY    -9 -13  83 W8        30.59S WCI -25
$$
MNZ065>067-074>077-082>085-091>093-130900-
   South Central Minnesota

CITY           SKY/WX    TMP DP  RH WIND       PRES   REMARKS
MANKATO        CLOUDY    -2 -11  65 NW6       30.61S WCI -14
NEW ULM        CLOUDY    -4 -11  71 NW7       30.63R WCI -18
ST JAMES       CLOUDY    -6  -9  84 W7        30.64R WCI -20
FAIRMONT       CLOUDY    -2  -9  71 NW10      30.59S WCI -19
GLENCOE        CLOUDY    -3 -10  72 NW6       30.63S WCI -15
FARIBAULT      CLOUDY    -4 -13  65 NW5       30.60F WCI -15
OWATONNA       CLOUDY    -8 -15  71 NW5       30.59F WCI -19
WASECA         CLOUDY    -6 -13  71 NW6       30.62S WCI -18
ALBERT LEA     CLOUDY    -2  -9  71 CALM      30.58S
$$
MNZ078>079-086>088-094>096-130900-
   Southeast Minnesota

CITY           SKY/WX    TMP DP  RH WIND       PRES   REMARKS
ROCHESTER      CLOUDY    -6 -13  71 NW13      30.56R WCI -25
RED WING       CLOUDY     0 -17  46 NW3       30.62R
STANTON        CLOUDY    -3 -13  61 NW5       30.61S WCI -13
DODGE CENTER   CLOUDY    -6 -11  77 NW10      30.55F WCI -23
WINONA         CLOUDY     3 -11  51 NW12      30.62S WCI -13
AUSTIN         CLOUDY    -2  -9  71 NW6       30.57S WCI -14
PRESTON        CLOUDY    -4 -13  65 NW8       30.56S WCI -19
$$
ABBREVIATIONS USED IN REMARKS
   TC - TEMPERATURES IN CELSIUS
  WCI - WIND CHILL INDEX
   HX - HEAT INDEX
  VSB - VISIBILITY
$$




USA.gov is the U.S. government's official web portal to all federal, state and local government web resources and services.